Regional Weather Roundup
Issued by NWS

Home | Current Version | Previous Version | Graphics & Text | Print | Product List | Glossary On
Versions: 1 2 3 4 5 6 7 8 9 10 11 12 13 14 15 16 17 18 19 20 21 22 23 24 25 26 27 28 29 30 31 32 33 34 35 36 37 38 39 40 41 42 43 44 45 46 47 48 49 50
000
ASUS45 KBOI 051710
RWRID

IDAHO REGIONAL WEATHER ROUNDUP
NATIONAL WEATHER SERVICE BOISE ID
1000 AM MST FRI FEB 05 2016

NOTE: "FAIR" INDICATES FEW OR NO CLOUDS BELOW 12000 FEET
WITH NO SIGNIFICANT WEATHER AND/OR OBSTRUCTIONS TO VISIBILITY

IDZ012-014-051800-
SOUTHWEST IDAHO


CITY           SKY/WX    TMP DP  RH WIND       PRES   REMARKS
BOISE          FOG       29  29 100 CALM      30.54R VSB<1/4
CALDWELL       FOG       29  29 100 CALM      30.58R VSB<1/4
MOUNTAIN HOME  SUNNY     33  33 100 E10       30.55R WCI  24
$$

IDZ016-017-051800-
SOUTHCENTRAL IDAHO


CITY           SKY/WX    TMP DP  RH WIND       PRES   REMARKS
BURLEY         CLOUDY    30  25  81 NE5       30.52R WCI  25
JEROME         CLOUDY    28  25  88 NE12      30.53R WCI  18
TWIN FALLS     CLOUDY    35  27  72 SW5       30.53R WCI  31
$$

IDZ019>023-051800-
SOUTHEAST IDAHO


CITY           SKY/WX    TMP DP  RH WIND       PRES   REMARKS
IDAHO FALLS    FOG       16  13  88 N8        30.54F VSB 1   WCI   5
POCATELLO      CLOUDY    20  17  88 NE3       30.56S FOG
REXBURG        CLOUDY    19  18  95 W3        30.53R FOG
$$

IDZ006-010-011-018-031-032-051800-
CENTRAL IDAHO MOUNTAINS


CITY           SKY/WX    TMP DP  RH WIND       PRES   REMARKS
MCCALL         CLOUDY    26  24  92 SE3       30.46F
HAILEY         MOSUNNY   18  14  86 CALM      30.50S
STANLEY          N/A     17  11  77 CALM      30.48R
SALMON         CLOUDY    16  12  86 CALM      30.52S
CHALLIS        MOSUNNY   11   7  84 CALM      30.49S FOG
$$

IDZ002-004-006-007-026-051800-
NORTHERN IDAHO


CITY           SKY/WX    TMP DP  RH WIND       PRES   REMARKS
LEWISTON       PTSUNNY   42  33  70 SE5       30.41F
LOWELL           N/A     35  33  92 N3        30.51F
COEUR D`ALENE  CLOUDY    37  36  93 S7        30.36S WCI  32
MULLAN PASS    SNOW      29  25  85 VRB6      30.30S VSB 1/4 WCI  23
$$



USA.gov is the U.S. government's official web portal to all federal, state and local government web resources and services.